User: anonymous
Location: Unspecified
(0.0000°N, 0.0000°E)
Time: 22:50:32
(UTC+00:00)
Language:

HST - Orbit

View from above orbital plane
View from above orbital plane
View from above satellite
View from above satellite

Ground track
Ground track

The orbit data is extracted from the following two-line orbital elements,

1 20580U 90037B   14292.48740712  .00005100  00000-0  33005-3 0  1380
2 20580 028.4707 299.7576 0003141 171.2423 325.6760 15.05950273143474
Epoch (UTC): 19 October 2014 11:41:51
Eccentricity: 0.0003141
inclination: 28.4707°
perigee height: 546 km
apogee height: 551 km
right ascension of ascending node: 299.7576°
argument of perigee: 171.2423°
revolutions per day: 15.05950273
mean anomaly at epoch: 325.6760°
orbit number at epoch: 14347

The dashed part of the orbit path shows where the satellite is in the earth's shadow,  

DLR